Location: Bolzano
(46.5015°N, 11.3369°E)
Time: 20:28:43
(UTC+02:00)

ISS - Visible Passes

Search period start: 18 April 2024 00:00
Search period end: 28 April 2024 00:00
Orbit: 412 x 419 km, 51.6° (Epoch: 18 April)

Date Brightness Start Highest point End Pass type
(mag) Time Alt. Az. Time Alt. Az. Time Alt. Az.
20 Apr -1.2 05:34:05 10° S 05:36:07 15° SE 05:38:08 10° E visible
22 Apr -2.6 05:31:42 10° SSW 05:34:46 35° SE 05:37:50 10° ENE visible
23 Apr -1.9 04:44:15 15° S 04:45:58 22° SE 04:48:36 10° E visible
24 Apr -1.3 03:57:10 14° SE 03:57:10 14° SE 03:58:56 10° ESE visible
24 Apr -3.7 05:30:04 10° WSW 05:33:23 80° SSE 05:36:44 10° ENE visible
25 Apr -3.3 04:42:50 26° SSW 04:44:23 50° SSE 04:47:37 10° ENE visible
26 Apr -2.6 03:55:32 31° SE 03:55:32 31° SE 03:58:22 10° ENE visible
26 Apr -3.3 05:28:41 10° W 05:31:58 54° NNW 05:35:15 10° ENE visible
27 Apr -1.1 03:08:09 14° E 03:08:09 14° E 03:08:52 10° E visible
27 Apr -3.8 04:40:59 25° WSW 04:42:45 76° NNW 04:46:05 10° ENE visible
